• In Belarus
  • List of Countries
  • For 7 days
  • Water Temperature
  • Satellite Maps
  • Weather Map
  • Weather Widgets
  • user-avatar
    Login

    Hourly Weather Chinnamanur

    Today, 14 November, Wednesday

    Time Temperature Precipitation Wind Pressure Humidity
    00:00 +25°C° 0 mm 1 mps 724 mmHg 79%
    01:00 +25°C° 0 mm 1 mps 724 mmHg 79%
    02:00 +25°C° 0 mm 1 mps 724 mmHg 80%
    03:00 +24°C° 0 mm 1 mps 724 mmHg 80%
    04:00 +24°C° 0 mm 1 mps 724 mmHg 80%
    05:00 +24°C° 0 mm 1 mps 724 mmHg 80%
    06:00 +25°C° 0 mm 1 mps 724 mmHg 75%
    07:00 +27°C° 0 mm 1 mps 725 mmHg 70%
    08:00 +26°C° 0 mm 0 mps 725 mmHg 65%
    09:00 +29°C° 0 mm 1 mps 725 mmHg 61%
    10:00 +30°C° 0 mm 1 mps 725 mmHg 58%
    11:00 +31°C° 0 mm 2 mps 725 mmHg 54%
    12:00 +31°C° 0.1 mm 1 mps 724 mmHg 56%
    13:00 +31°C° 0.1 mm 1 mps 724 mmHg 59%
    14:00 +28°C° 0.1 mm 0 mps 723 mmHg 61%
    15:00 +28°C° 0.2 mm 0 mps 723 mmHg 65%
    16:00 +27°C° 0.2 mm 0 mps 723 mmHg 68%
    17:00 +27°C° 0.2 mm 0 mps 723 mmHg 71%
    18:00 +26°C° 0.1 mm 0 mps 723 mmHg 72%
    19:00 +26°C° 0.1 mm 0 mps 724 mmHg 73%
    20:00 +27°C° 0.1 mm 1 mps 725 mmHg 74%
    21:00 +26°C° 0 mm 1 mps 725 mmHg 76%
    22:00 +26°C° 0 mm 1 mps 725 mmHg 78%
    23:00 +25°C° 0 mm 1 mps 725 mmHg 79%

    Tomorrow, 15 November, Thursday

    Time Temperature Precipitation Wind Pressure Humidity
    00:00 +25°C° 0 mm 1 mps 724 mmHg 80%
    01:00 +25°C° 0 mm 1 mps 724 mmHg 81%
    02:00 +24°C° 0 mm 1 mps 723 mmHg 82%
    03:00 +24°C° 0 mm 1 mps 724 mmHg 82%
    04:00 +24°C° 0 mm 1 mps 724 mmHg 82%
    05:00 +23°C° 0 mm 1 mps 724 mmHg 82%
    06:00 +25°C° 0 mm 1 mps 724 mmHg 77%
    07:00 +26°C° 0 mm 1 mps 725 mmHg 72%
    08:00 +28°C° 0 mm 1 mps 726 mmHg 67%
    09:00 +29°C° 0 mm 1 mps 726 mmHg 60%
    10:00 +31°C° 0 mm 1 mps 726 mmHg 53%
    11:00 +33°C° 0 mm 1 mps 726 mmHg 45%
    12:00 +34°C° 0 mm 2 mps 725 mmHg 44%
    13:00 +34°C° 0 mm 2 mps 724 mmHg 44%
    14:00 +34°C° 0 mm 2 mps 723 mmHg 43%
    15:00 +32°C° 0.1 mm 2 mps 723 mmHg 48%
    16:00 +30°C° 0.1 mm 1 mps 723 mmHg 54%
    17:00 +29°C° 0.1 mm 1 mps 723 mmHg 60%
    18:00 +28°C° 0.1 mm 1 mps 724 mmHg 60%
    19:00 +28°C° 0.1 mm 1 mps 724 mmHg 61%
    20:00 +27°C° 0.1 mm 1 mps 725 mmHg 61%
    21:00 +27°C° 0 mm 1 mps 725 mmHg 63%
    22:00 +27°C° 0 mm 1 mps 725 mmHg 64%
    23:00 +26°C° 0 mm 1 mps 725 mmHg 66%

    Day after tomorrow, 16 November, Friday

    Time Temperature Precipitation Wind Pressure Humidity
    00:00 +26°C° 0 mm 1 mps 724 mmHg 68%
    01:00 +26°C° 0 mm 1 mps 724 mmHg 70%
    02:00 +26°C° 0 mm 1 mps 723 mmHg 73%
    03:00 +25°C° 0 mm 1 mps 723 mmHg 74%
    04:00 +25°C° 0 mm 1 mps 723 mmHg 76%
    05:00 +25°C° 0 mm 1 mps 723 mmHg 77%
    06:00 +26°C° 0 mm 1 mps 723 mmHg 73%
    07:00 +27°C° 0 mm 1 mps 724 mmHg 69%
    08:00 +28°C° 0 mm 1 mps 725 mmHg 65%
    09:00 +28°C° 0.2 mm 1 mps 724 mmHg 67%
    10:00 +28°C° 0.2 mm 2 mps 724 mmHg 68%
    11:00 +28°C° 0.2 mm 2 mps 724 mmHg 70%
    12:00 +27°C° 2.7 mm 2 mps 723 mmHg 73%
    13:00 +27°C° 2.7 mm 3 mps 723 mmHg 76%
    14:00 +27°C° 2.7 mm 3 mps 722 mmHg 79%
    15:00 +26°C° 4.8 mm 3 mps 722 mmHg 83%
    16:00 +26°C° 4.8 mm 2 mps 722 mmHg 86%
    17:00 +25°C° 4.8 mm 2 mps 722 mmHg 89%
    18:00 +25°C° 3.1 mm 2 mps 723 mmHg 91%
    19:00 +25°C° 3.1 mm 2 mps 724 mmHg 92%
    20:00 +25°C° 3.1 mm 2 mps 725 mmHg 93%
    21:00 +25°C° 1.1 mm 2 mps 725 mmHg 93%
    22:00 +25°C° 1.1 mm 2 mps 725 mmHg 93%
    23:00 +25°C° 1.1 mm 1 mps 725 mmHg 93%

    17 November, Saturday

    Time Temperature Precipitation Wind Pressure Humidity
    00:00 +24°C° 0.2 mm 1 mps 724 mmHg 93%
    01:00 +24°C° 0.2 mm 1 mps 724 mmHg 92%
    02:00 +24°C° 0.2 mm 1 mps 723 mmHg 92%
    03:00 +24°C° 0 mm 1 mps 723 mmHg 91%
    04:00 +23°C° 0 mm 1 mps 724 mmHg 91%
    05:00 +23°C° 0 mm 1 mps 724 mmHg 90%
    06:00 +24°C° 0 mm 1 mps 724 mmHg 86%
    07:00 +25°C° 0 mm 1 mps 725 mmHg 83%
    08:00 +26°C° 0 mm 1 mps 726 mmHg 79%
    09:00 +28°C° 0.1 mm 1 mps 726 mmHg 73%
    10:00 +29°C° 0.1 mm 1 mps 726 mmHg 67%
    11:00 +30°C° 0.1 mm 1 mps 726 mmHg 61%
    12:00 +30°C° 0.5 mm 1 mps 725 mmHg 62%
    13:00 +30°C° 0.5 mm 2 mps 724 mmHg 63%
    14:00 +30°C° 0.5 mm 2 mps 723 mmHg 64%
    15:00 +29°C° 0.7 mm 1 mps 723 mmHg 69%
    16:00 +28°C° 0.7 mm 1 mps 724 mmHg 74%
    17:00 +28°C° 0.7 mm 1 mps 724 mmHg 79%
    18:00 +27°C° 0.2 mm 1 mps 724 mmHg 81%
    19:00 +26°C° 0.2 mm 1 mps 725 mmHg 82%
    20:00 +25°C° 0.2 mm 1 mps 725 mmHg 84%
    21:00 +25°C° 0 mm 1 mps 725 mmHg 84%
    22:00 +25°C° 0 mm 1 mps 725 mmHg 84%
    23:00 +24°C° 0 mm 1 mps 725 mmHg 84%

    18 November, Sunday

    Time Temperature Precipitation Wind Pressure Humidity
    00:00 +24°C° 0 mm 1 mps 724 mmHg 85%
    01:00 +24°C° 0 mm 1 mps 724 mmHg 85%
    02:00 +24°C° 0 mm 1 mps 723 mmHg 86%
    03:00 +23°C° 0 mm 1 mps 724 mmHg 86%
    04:00 +23°C° 0 mm 1 mps 724 mmHg 86%
    05:00 +23°C° 0 mm 1 mps 724 mmHg 86%
    06:00 +25°C° 0 mm 1 mps 725 mmHg 80%
    07:00 +26°C° 0 mm 1 mps 726 mmHg 74%
    08:00 +27°C° 0 mm 1 mps 727 mmHg 69%
    09:00 +29°C° 0 mm 1 mps 726 mmHg 64%
    10:00 +30°C° 0 mm 1 mps 726 mmHg 59%
    11:00 +32°C° 0 mm 2 mps 726 mmHg 53%
    12:00 +32°C° 0.1 mm 2 mps 725 mmHg 53%
    13:00 +32°C° 0.1 mm 1 mps 724 mmHg 54%
    14:00 +32°C° 0.1 mm 1 mps 723 mmHg 54%
    15:00 +31°C° 0.9 mm 1 mps 723 mmHg 61%
    16:00 +30°C° 0.9 mm 1 mps 723 mmHg 69%
    17:00 +28°C° 0.9 mm 1 mps 723 mmHg 77%
    18:00 +27°C° 1 mm 1 mps 724 mmHg 79%
    19:00 +27°C° 1 mm 1 mps 725 mmHg 82%
    20:00 +26°C° 1 mm 1 mps 726 mmHg 84%
    21:00 +26°C° 0.5 mm 1 mps 725 mmHg 85%
    22:00 +26°C° 0.5 mm 1 mps 725 mmHg 85%
    23:00 +25°C° 0.5 mm 1 mps 725 mmHg 86%

    19 November, Monday

    Time Temperature Precipitation Wind Pressure Humidity
    00:00 +25°C° 0.1 mm 1 mps 725 mmHg 86%
    01:00 +25°C° 0.1 mm 1 mps 724 mmHg 87%
    02:00 +25°C° 0.1 mm 1 mps 724 mmHg 87%
    03:00 +25°C° 0 mm 1 mps 724 mmHg 86%
    04:00 +24°C° 0 mm 1 mps 724 mmHg 86%
    05:00 +24°C° 0 mm 1 mps 725 mmHg 86%
    06:00 +25°C° 0 mm 1 mps 726 mmHg 82%
    07:00 +26°C° 0 mm 1 mps 726 mmHg 78%
    08:00 +27°C° 0 mm 1 mps 727 mmHg 74%
    09:00 +28°C° 0.1 mm 1 mps 727 mmHg 69%
    10:00 +30°C° 0.1 mm 2 mps 727 mmHg 64%
    11:00 +31°C° 0.1 mm 2 mps 727 mmHg 59%
    12:00 +31°C° 0.3 mm 2 mps 726 mmHg 60%
    13:00 +31°C° 0.3 mm 2 mps 725 mmHg 61%
    14:00 +31°C° 0.3 mm 2 mps 724 mmHg 62%
    15:00 +30°C° 0.3 mm 2 mps 725 mmHg 67%
    16:00 +29°C° 0.3 mm 1 mps 725 mmHg 73%
    17:00 +28°C° 0.3 mm 1 mps 725 mmHg 78%
    18:00 +27°C° 0.3 mm 1 mps 726 mmHg 81%
    19:00 +27°C° 0.3 mm 1 mps 726 mmHg 83%
    20:00 +26°C° 0.3 mm 1 mps 727 mmHg 86%
    21:00 +26°C° 0.1 mm 1 mps 727 mmHg 86%
    22:00 +25°C° 0.1 mm 1 mps 727 mmHg 86%
    23:00 +25°C° 0.1 mm 1 mps 727 mmHg 86%
    Show more